Location: Jangalapalle
(16.8036°N, 80.6370°E)
Time: 12:24:53
(UTC+00:00)

Cosmos 2298 Rocket - Pass Details

Date: 05 August 2024
Orbit: 775 x 781 km, 74.0° (Epoch: 08 September)

Event Time Altitude Azimuth Distance (km) Brightness Sun altitude
Rises 23:41:56 0° 334° (NNW) 3,245 7.2 -9.2°
Reaches altitude 10° 23:44:27 10° 326° (NNW) 2,317 6.4 -8.7°
Maximum altitude 23:49:17 38° 259° (W) 1,161 4.5 -7.6°
Drops below altitude 10° 23:54:08 10° 192° (SSW) 2,315 6.2 -6.5°
Sets 23:56:39 0° 184° (S) 3,241 7.0 -5.9°
